{"data":{"norad_id":48439,"epoch":"2026-09-19T23:15:39.845088Z","epoch_age_seconds":82946,"freshness":"FRESH","line1":"1 48439U 21040M   26262.96921117  .00001913  00000+0  73399-4 0  9997","line2":"2 48439  53.1617 354.2452 0000684  93.4460 266.6620 15.31698542296449","mean_motion":15.31698542,"eccentricity":6.84e-5,"inclination_deg":53.1617,"raan_deg":354.2452,"arg_perigee_deg":93.446,"mean_anomaly_deg":266.662,"bstar":7.3399e-5,"rev_number":29644,"period_min":94.013277450779,"perigee_km":470.27587796747,"apogee_km":471.21280493498,"semimajor_km":6848.8813414512,"source":"CELESTRAK","updated_at":"2026-09-20T09:00:39.124824Z"}}